www.pogodaiklimat.ru

Погода и климат >> Архив погоды >> Ирак >> Erbeel


ПОГОДА в Erbeel

  • Прогноз погоды в Erbeel
  • Монитор погоды в Erbeel
  • Климат города

АРХИВ ПОГОДЫ в Erbeel

Время (UTC), дата Ветер
(напр.,м/с)
 
Видим.   Явления Облачность Т
(С)
Тd
(С)
f
(%)
Тe
(С)
Тes
(С)
Комфортность P
(гПа)
Po
(гПа)
Тmin
(С)
Tmax
(С)
R
(мм)
R24
(мм)
S
(см)
03 14.10 штиль 0 10 км ясно +17.9 +8.4 54 +18 +18 1015.1 1015.0
09 14.10 З 1 10 км ясно +27.5 +10.4 34 +28 +40 жарко 1012.5 1013.0
12 14.10 З 1 10 км 1/0
[Ac trans]
+28.2 +10.0 32 +28 +34 жарко 1011.4 1011.0
15 14.10 З 2 10 км 3/3 660 м
[Cu med, cong]
+26.0 +9.4 35 +26 +26 жарко 1011.5 1012.0
03 15.10 штиль 0 10 км 8/6 750 м
[Cu Sc Ac lent]
+19.6 +8.1 47 +20 +20 1012.2 1012.0
06 15.10 штиль 0 10 км 9/9 660 м
[Cu Sc]
+21.2 +10.2 49 +23 +23 комфорт 1013.8 1014.0 +18.0
12 15.10 СЗ 3 10 км {ливн. осадки} 1/0
[Ac lent]
+28.5 +10.5 33 +29 +33 жарко 1011.6 1012.0
15 15.10 З 1 10 км 1/0
[Ci sp]
+26.0 +11.1 39 +27 +27 жарко 1012.0 1012.0
03 16.10 штиль 0 10 км ясно +16.5 +8.3 58 +16 +16 1013.6 1014.0
06 16.10 штиль 0 10 км ясно +22.6 +10.7 47 +25 +30 комфорт 1013.6 1014.0 +15.1
09 16.10 Ю 1 10 км 1/1 750 м
[Cu hum]
+27.0 +9.6 34 +27 +38 жарко 1012.2 1012.0
12 16.10 З 1 10 км ясно +27.1 +7.4 29 +27 +32 жарко 1011.6 1012.0
15 16.10 З 1 10 км ясно +25.1 +7.2 32 +25 +25 комфорт 1011.7 1012.0
18 16.10 штиль 0 10 км ясно +22.0 +8.2 41 +23 +23 комфорт 1012.4 1012.0 +27.8
03 17.10 штиль 0 10 км ясно +15.5 +6.3 54 +15 +15 1014.3 1014.0
06 17.10 Ю 2 10 км ясно +22.5 +10.6 47 +24 +29 комфорт 1013.6 1014.0 +14.8
09 17.10 ЮВ 3 10 км ясно +27.8 +11.1 35 +29 +37 жарко 1013.0 1013.0
12 17.10 Ю 2 10 км ясно +28.0 +11.2 35 +29 +33 жарко 1012.2 1012.0
18 17.10 СВ 1 10 км ясно +21.1 +19 +19 1006.6 1007.0 +29.1
03 18.10 В 6 10 км 1/0
[Ac lent]
+21.0 +3.5 32 +21 +21 комфорт 1015.1 1015.0
09 18.10 В 3 10 км ясно +27.5 +7.8 29 +27 +35 жарко 1015.2 1015.0
12 18.10 ЮВ 2 10 км ясно +28.8 +11.7 35 +30 +34 жарко 1013.9 1014.0
15 18.10 В 1 10 км ясно +26.2 +9.9 36 +27 +27 жарко 1014.4 1014.0
18 18.10 В 1 10 км ясно +21.6 +7.9 41 +23 +23 комфорт 1015.5 1016.0 +29.7
03 19.10 В 4 10 км ясно +20.5 +6.0 39 +21 +21 комфорт 1017.1 1017.0
09 19.10 З 2 10 км ясно +26.4 +9.2 34 +27 +37 жарко 1018.0 1018.0
15 19.10 штиль 0 10 км ясно +25.0 +9.6 38 +26 +26 жарко 1016.7 1017.0
06 20.10 штиль 0 10 км ясно +21.0 +8.8 46 +22 +28 комфорт 1018.2 1018.0 +15.5
09 20.10 штиль 0 10 км ясно +25.6 +8.8 34 +26 +39 жарко 1017.0 1017.0
12 20.10 СЗ 1 10 км ясно +27.1 +7.4 29 +27 +32 жарко 1015.8 1016.0
15 20.10 штиль 0 10 км ясно +24.2 +9.2 39 +25 +25 комфорт 1015.5 1016.0
18 20.10 штиль 0 10 км ясно +20.5 +6.5 40 +21 +21 комфорт 1017.2 1017.0 +28.2

 

Местоположение метеостанции Erbeel (Ирак): широта 36.15 долгота 44.00 высота над уровнем моря 420 м.

В архиве по умолчанию представлена погода в Erbeel за последнюю неделю. Архивные данные за месяц целиком и за предыдущие месяцы, начиная с января 2011 года, Вы можете получить, выбрав интересующий диапазон дат из раскрывающегося списка и нажав кнопку "Ввод!".

Внимание! Время в таблицах - всемирное. Для получения местного времени необходимо прибавить поправку, которая в Erbeel равна 3 ч.

Смотрите также архив погоды в соседних городах и на ближайших метеорологических станциях:

Погода в Salahadin (Ирак) (31 км)
Погода в Makhmoor (Ирак) (57 км)
Погода в Aqraa (Ирак) (68 км)
Погода в Mosul (Ирак) (79 км)
Погода в Kirkuk (Ирак) (84 км)
Погода в Chamchamal (Ирак) (103 км)
Погода в Dohuk (Ирак) (120 км)
Погода в Baiji (Ирак) (144 км)
Погода в Sulaimaniya (Ирак) (147 км)
Погода в Tuz (Ирак) (153 км)

Пояснения к столбцам:

Ветер - указаны скорость ветра в м/с - средняя за 10 мин, порывы в срок и между сроками (в фигурных скобках) и направление, откуда дует ветер: С - северный, СВ - северо-восточный, В - восточный, ЮВ - юго-восточный, Ю - южный, ЮЗ - юго-западный, З - западный, СЗ - северо-западный.
Видимость - горизонтальная дальность видимости в метрах или километрах. При видимости от 1 до 10 км при отсутствии осадков обычно наблюдается дымка, при ухудшении видимости до 1 км и менее - туман. В сухую погоду видимость может ухудшаться дымом, пылью или мглою.
Явления - указаны атмосферные явления, наблюдавшиеся в срок или в последний час перед сроком; фигурными скобками обозначены явления, наблюдавшиеся между сроками (за 1-3 часа до срока); квадратными скобками обозначены град или гололедные отложения с указанием их диаметра в мм.
Облачность - указаны через наклонную черту общая и нижняя облачность в баллах и высота нижней границы облаков в метрах; квадратными скобками обозначены формы облаков: Ci - перистые, Cs - перисто-слоистые, Cc - перисто-кучевые, Ac - высококучевые, As - высокослоистые, Sc - слоисто-кучевые, Ns - слоисто-дождевые, Cu - кучевые, Cb - кучево-дождевые. Подробнее классификацию облаков см. в Атласе облаков (PDF).
T - Температура воздуха - температура, измеренная на высоте 2 м над землей.
Td - Температура точки росы - температура, при понижении до которой содержащийся в воздухе водяной пар достигнет насыщения.
f - Относительная влажность воздуха - влажноcть воздуха, измеренная на высоте 2 м над землей.
Te - Эффективная температура - температура, которую ощущает одетый по сезону человек в тени. Характеристика душности погоды. При расчете учитывается влияние влажности воздуха и скорости ветра на теплоощущения человека.
Tes - Эффективная температура на солнце - температура, которую ощущает человек, с поправкой на солнечный нагрев. Характеристика знойности погоды. Зависит от высоты солнца над горизонтом, облачности и скорости ветра. Ночью, в пасмурную погоду, а также при ветре 12 м/с и более поправка равна нулю.
P - Атмосферное давление - приведенное к уровню моря атмосферное давление.
Po - Атмосферное давление - измеренное на уровне метеостанции атмосферное давление.
Tmin - Минимальная температура - минимум температуры воздуха на высоте 2 м над землей.
Tmax - Максимальная температура - максимум температуры воздуха на высоте 2 м над землей.
R - Количество осадков - Количество выпавших осадков за период времени, мм. При наведении курсора мыши на число - период времени, за который выпало указанное количество осадков.
R24 - Количество осадков - Количество выпавших осадков за 24 часа, мм.
S - Снежный покров - Высота снежного покрова, см. При наведении курсора мыши на число - состояние снежного покрова и степень покрытия местности в баллах.